Theta_e
340 339 338 338 338 338 342 348 349 346 348 350 349 348 344 343 347 343 344 339 339 337 339 335 333 337 343 342 347 346 344 346 345 343 344 343 345 344 342 343 343 347 348
344 342 341 339 340 340 340 345 347 349 346 349 350 346 345 344 344 344 343 342 346 340 341 338 333 336 342 340 343 346 345 347 345 345 345 347 347 342 348 349 348 348 349
345 345 342 342 342 342 342 343 347 348 346 348 347 346 345 346 343 345 346 343 342 347 348 344 337 337 340 343 339 336 342 346 344 342 339 343 345 340 346 350 348 350 350
339 346 346 345 346 345 344 343 344 345 345 347 344 344 348 344 348 348 346 347 349 345 346 346 346 342 339 340 343 343 343 342 340 336 337 339 341 338 344 352 349 338 338
342 341 342 343 340 346 346 346 347 346 346 347 348 345 342 346 349 350 349 349 347 349 343 343 347 350 348 347 348 349 349 348 346 346 341 340 345 342 343 335 329 330 330
345 340 340 340 338 338 345 346 347 348 349 347 348 350 350 345 343 343 347 351 349 347 346 348 344 342 345 349 351 350 351 351 349 348 345 339 332 331 333 336 336 336 343
346 346 346 343 339 338 339 344 346 349 350 349 349 349 349 351 350 347 342 344 343 344 347 348 348 347 348 347 346 349 348 347 348 351 352 351 349 342 344 339 341 346 345
339 340 341 344 344 343 339 340 340 341 346 347 348 348 349 352 354 354 351 347 346 346 348 349 350 350 349 347 348 349 347 345 350 352 351 348 350 349 347 345 343 342 342
330 330 332 333 335 340 344 345 345 347 345 343 346 348 348 349 350 352 352 350 348 348 347 348 347 347 348 351 351 349 345 341 341 344 346 346 345 345 345 346 344 344 341
326 326 325 325 328 329 328 328 329 334 340 344 347 348 350 350 350 351 352 352 351 350 348 348 347 346 345 346 347 346 344 341 341 342 343 343 343 343 344 348 344 343 340
322 324 324 323 322 321 319 318 319 323 330 333 338 343 343 345 347 349 349 349 349 350 350 350 351 351 351 350 350 350 350 350 349 348 348 348 348 347 344 342 340 341 341
315 317 320 321 322 323 323 322 320 320 327 330 333 336 336 340 342 344 346 347 349 350 350 350 350 351 351 351 351 352 353 352 352 351 350 349 349 349 348 348 346 344 342
310 311 313 314 316 318 320 321 322 322 322 321 325 328 330 332 333 336 338 343 347 348 348 349 349 350 350 351 351 353 352 351 351 352 352 351 351 350 350 350 348 347 346
310 311 313 314 315 316 318 320 321 324 323 322 322 321 320 319 319 319 321 322 326 328 331 338 344 348 350 350 348 348 349 350 349 350 350 350 350 350 350 349 349 348 348
307 308 310 311 313 315 318 319 321 323 322 322 322 322 321 320 320 319 319 320 320 320 322 323 322 322 324 330 331 328 323 326 333 338 344 348 349 349 347 348 350 349 349
304 305 306 307 308 309 309 311 318 320 321 322 322 321 321 320 319 320 320 321 322 322 322 322 322 323 323 323 323 323 323 325 330 338 347 349 349 350 350 350 350 351 351
302 302 302 302 302 303 304 305 307 309 312 317 320 320 320 320 320 321 320 320 321 321 321 320 322 324 324 324 325 324 324 327 338 341 344 346 349 350 351 350 349 349 350
300 300 300 300 301 301 302 302 303 303 304 306 308 309 312 317 319 319 320 321 321 321 321 321 322 325 323 321 323 323 320 320 322 335 344 344 344 346 347 346 347 348 348
299 299 300 300 300 300 300 301 301 301 302 302 303 304 307 309 313 316 317 318 319 319 320 321 324 324 325 323 316 313 314 316 318 321 324 328 340 343 343 344 345 347 347
299 299 299 299 299 299 299 299 300 300 301 301 301 301 302 303 307 311 315 316 318 319 321 325 327 327 326 325 323 322 318 313 313 316 320 326 327 335 341 344 344 345 345
299 298 298 298 298 298 298 298 298 298 299 299 299 300 300 300 301 303 307 311 314 317 321 323 325 325 324 324 322 320 319 319 313 313 316 321 328 327 338 342 342 345 343
299 298 298 298 298 297 297 297 297 297 297 297 297 297 298 299 298 299 301 304 309 312 315 317 319 320 320 319 319 318 318 317 315 313 314 318 325 327 336 339 340 341 343
298 298 298 298 297 297 296 296 295 295 295 296 296 296 295 295 295 298 299 301 303 305 308 311 313 314 316 317 318 316 316 317 315 313 312 315 322 328 335 338 339 339 341
299 299 298 297 297 296 296 295 294 294 293 293 293 292 292 293 294 295 297 299 300 303 305 307 307 309 310 312 314 315 315 313 312 311 312 315 323 327 332 337 338 338 339
300 300 299 297 297 296 296 295 294 294 293 293 292 290 290 292 292 294 295 296 298 300 301 301 303 305 307 309 310 312 313 312 311 311 312 316 324 328 332 335 336 337 338
301 300 299 297 297 296 295 294 294 294 293 293 292 292 291 291 291 292 294 295 296 297 298 299 301 302 304 306 308 309 309 309 310 313 316 318 323 325 330 331 333 334 335
Wind_Speed
27 30 28 25 22 18 18 18 18 16 15 14 13 14 16 16 13 13 13 17 17 17 16 18 19 19 15 11 10 10 9 9 12 14 16 17 18 20 17 16 13 10 13
23 28 27 26 25 22 20 21 19 18 17 17 14 14 15 14 14 12 12 15 15 13 14 14 15 19 20 18 15 16 15 14 15 18 20 19 19 14 19 17 14 16 15
18 23 25 26 27 25 24 23 23 21 19 19 18 16 14 17 14 13 12 11 15 14 10 11 14 17 18 17 19 21 21 20 21 23 25 25 25 21 18 12 14 13 13
15 21 24 22 24 25 27 25 27 24 23 23 22 20 20 19 20 17 16 15 15 15 16 13 8 8 10 10 9 9 10 13 15 19 22 23 23 22 19 22 24 22 23
15 15 24 21 18 20 27 26 24 25 26 24 25 24 23 23 24 23 22 20 18 17 16 18 16 15 13 12 13 13 14 15 15 17 19 20 19 17 19 22 24 23 23
22 20 19 11 15 22 21 24 22 20 22 25 26 26 24 24 25 25 25 25 24 23 21 21 19 18 18 17 16 17 18 19 22 23 21 22 20 20 20 22 23 22 25
9 9 11 17 16 13 14 23 18 19 22 25 26 26 27 24 23 24 24 25 25 23 22 21 20 20 21 23 24 25 25 24 24 26 28 27 25 21 20 21 18 21 26
13 11 11 9 11 13 10 15 19 20 18 19 21 26 28 27 26 25 25 26 28 27 26 26 26 25 23 21 22 24 25 25 26 26 27 28 28 24 23 22 26 28 30
12 10 9 8 7 7 6 7 13 15 16 21 25 25 30 28 26 25 26 26 29 31 33 31 30 30 29 28 27 30 30 30 28 29 30 32 30 30 29 29 30 32 36
6 6 7 5 4 4 3 1 2 5 6 9 13 12 13 17 19 22 23 25 28 31 30 31 35 36 33 32 33 34 36 37 35 34 32 31 31 32 31 33 34 36 37
5 5 5 4 3 1 1 1 2 2 2 2 4 6 11 14 15 19 22 26 28 28 28 29 30 30 32 33 33 34 35 34 31 30 32 32 32 31 30 29 30 31 32
10 10 10 9 7 6 5 3 1 3 3 3 2 1 6 7 7 10 15 21 23 25 26 27 29 31 29 29 29 28 29 29 31 32 36 38 39 39 38 37 35 33 33
7 9 12 12 11 10 9 8 6 4 5 8 9 10 10 9 9 9 9 9 13 16 20 24 25 26 29 30 30 31 32 35 37 41 42 41 40 38 36 35 35 37 38
2 3 6 9 10 10 10 10 9 8 7 9 11 13 14 14 13 14 14 15 16 16 18 21 21 22 22 24 29 29 30 31 31 31 38 44 46 46 47 47 48 47 44
3 2 3 4 7 10 10 11 10 8 11 12 11 13 16 18 16 17 18 18 18 20 21 21 20 19 20 21 22 23 24 23 24 24 27 28 29 31 35 34 35 36 37
8 7 6 4 5 8 10 13 16 17 16 14 13 16 18 16 17 17 19 19 20 22 24 24 24 23 23 23 22 23 23 22 20 21 23 24 28 29 29 27 27 31 35
9 9 10 11 11 11 11 14 16 15 21 27 28 26 22 23 23 22 21 21 21 23 26 25 25 24 24 23 22 22 23 22 20 22 23 24 27 27 27 29 30 30 27
11 12 12 13 13 14 15 16 18 21 24 23 21 23 26 27 27 26 27 27 26 27 26 28 29 28 26 26 25 25 25 25 24 21 20 22 26 26 28 30 30 33 34
12 13 14 14 16 17 18 20 21 23 25 28 30 28 28 27 30 29 30 34 34 31 28 24 29 31 30 28 26 25 27 28 29 28 26 25 25 25 29 30 30 30 30
11 13 15 17 19 20 20 22 23 25 27 29 31 32 34 32 33 32 28 24 25 29 28 27 30 31 31 32 31 30 31 31 30 31 30 27 25 25 27 28 28 30 30
11 13 15 18 21 23 23 23 24 25 27 30 32 32 32 32 34 36 34 32 26 22 23 26 29 29 30 31 32 34 36 36 34 33 33 31 26 25 26 28 31 30 30
11 13 16 20 25 27 26 25 25 26 27 29 31 32 31 33 36 40 40 38 35 34 34 34 33 31 30 30 31 33 36 38 38 38 36 33 30 27 28 30 30 31 32
10 13 16 22 27 29 27 26 25 26 28 29 31 32 31 32 32 33 35 33 32 38 41 44 44 43 40 39 41 40 39 42 45 45 41 37 33 29 28 32 34 31 31
10 16 20 24 29 31 30 29 28 27 27 29 30 29 27 31 31 33 33 35 36 34 30 36 47 49 48 46 47 48 47 46 46 48 44 39 35 31 30 32 34 34 34
11 16 20 24 30 32 31 30 29 29 30 30 30 29 29 30 27 28 30 30 31 29 34 44 49 50 48 48 47 48 50 49 47 45 41 36 34 31 29 32 33 35 36
14 15 18 22 29 30 28 28 29 29 30 32 33 33 32 31 29 29 31 32 34 37 41 42 41 42 42 44 45 45 45 44 40 33 31 32 32 30 29 30 30 33 35
Wind_Direction
220 218 221 221 226 221 214 214 222 227 238 236 238 247 238 214 213 220 222 224 230 228 226 237 242 243 253 256 261 268 280 289 294 294 302 303 306 314 313 306 302 298 323
229 232 223 228 225 228 229 222 228 230 234 236 236 237 233 226 210 209 224 222 229 228 232 242 233 239 246 262 263 262 269 284 296 294 294 299 305 311 323 331 322 326 323
218 232 234 233 228 233 232 228 231 229 233 240 239 234 233 234 229 222 222 235 239 240 238 247 241 244 249 257 269 264 261 272 282 289 290 292 296 298 307 321 328 323 314
262 246 232 230 239 235 234 234 235 238 239 243 248 248 246 244 237 239 235 237 247 254 245 245 246 247 256 262 273 279 282 287 292 293 288 290 293 295 293 307 314 317 317
223 222 224 260 252 239 235 229 232 236 241 248 249 248 249 246 244 247 245 247 247 252 256 246 248 251 256 269 283 289 295 294 299 303 305 300 296 296 294 305 312 317 316
179 209 203 227 209 252 252 224 228 234 238 239 242 248 248 248 249 250 253 256 258 256 251 253 257 256 253 258 265 273 276 283 293 297 304 301 302 305 309 312 310 313 317
171 206 229 217 220 216 235 224 243 246 244 241 240 241 242 245 251 255 253 255 257 256 255 256 257 258 262 262 261 265 270 276 284 286 288 289 295 300 305 305 305 305 303
122 112 112 148 208 233 234 229 245 260 256 250 251 252 249 244 242 244 246 252 258 255 255 257 261 265 267 270 269 269 268 266 266 277 282 288 290 292 294 298 298 298 298
124 121 118 115 121 148 177 207 246 260 252 260 258 256 249 246 248 251 254 253 255 256 256 259 264 264 265 267 272 275 277 275 275 276 279 282 285 286 289 292 293 296 296
132 132 137 146 147 140 132 147 290 286 286 272 258 275 280 269 256 256 259 261 260 258 256 258 260 263 267 268 269 273 276 279 284 287 287 285 283 284 284 283 286 285 288
206 207 205 198 189 174 104 65 352 336 275 314 296 264 277 280 270 273 267 262 260 262 260 257 259 261 262 263 265 268 272 279 278 280 280 280 281 280 279 280 282 282 284
260 251 247 248 249 244 243 258 322 326 292 317 4 334 346 348 330 292 277 272 274 270 266 260 259 262 264 266 263 265 268 272 273 274 274 274 278 282 286 289 288 287 287
263 250 245 245 249 259 263 262 255 262 318 308 297 297 298 304 318 323 321 306 290 285 281 283 277 268 269 266 269 272 271 272 275 272 272 273 276 281 284 286 288 291 291
317 260 255 248 244 249 254 266 273 276 273 278 286 294 300 298 302 303 298 292 291 292 291 288 289 284 280 278 279 279 282 278 281 282 278 276 278 280 280 282 283 284 286
6 356 321 295 272 261 262 265 264 259 284 299 297 300 299 290 298 308 305 297 291 290 289 285 286 288 290 284 278 284 288 288 289 293 289 287 286 286 285 291 290 289 286
31 28 20 0 320 303 290 260 255 263 257 258 266 283 285 290 286 291 293 287 288 290 287 290 293 294 292 291 293 293 296 302 300 299 300 295 290 288 291 293 294 292 287
31 24 11 356 346 336 325 317 300 250 262 262 264 267 273 283 283 277 273 270 274 278 281 284 291 293 294 292 290 291 293 299 302 298 299 295 297 291 286 284 286 285 281
14 2 355 349 342 336 330 323 317 313 307 294 280 277 266 266 272 277 275 270 268 272 283 284 284 285 287 289 287 288 289 290 289 288 291 298 296 295 290 285 286 285 280
5 3 2 357 349 342 333 324 318 313 309 306 303 294 284 277 271 274 281 278 279 281 278 281 273 272 277 281 289 293 294 293 291 291 293 282 292 297 294 288 285 284 282
7 9 11 6 358 350 341 332 325 318 312 308 305 304 302 293 284 276 274 287 288 279 277 269 259 258 265 274 279 287 293 295 293 290 289 291 285 279 285 289 286 284 282
16 18 15 9 2 354 344 333 324 318 313 309 305 303 299 298 291 285 276 273 277 275 267 257 255 258 266 273 281 287 288 291 293 291 289 287 291 281 282 283 280 281 282
3 6 3 3 1 356 349 339 329 322 316 310 307 304 301 293 288 283 280 271 264 268 269 271 272 274 278 281 284 288 292 293 292 292 288 286 285 283 276 279 277 277 277
351 360 1 1 357 352 346 341 335 327 322 317 311 309 306 301 296 292 288 286 279 269 269 270 271 272 274 278 281 290 292 292 294 292 289 284 281 279 276 272 273 275 273
352 0 1 357 353 349 347 343 338 333 328 322 317 313 303 298 292 290 290 288 279 263 273 274 269 271 273 276 278 281 287 290 288 286 284 282 278 276 273 275 269 268 268
331 350 353 352 351 347 345 343 340 337 334 332 327 321 312 308 295 287 289 287 286 284 272 270 268 269 272 274 278 280 281 285 282 278 278 278 276 272 270 269 270 268 263
308 331 342 346 348 345 343 343 341 336 337 336 333 329 323 317 306 292 285 280 277 277 278 283 284 279 277 274 274 276 276 275 277 275 273 274 272 269 268 267 269 268 265